Regional Weather Roundup
Issued by NWS Burlington, VT

Home | Current Version | Previous Version | Text Only | Print | Product List | Glossary On
Versions: 1 2 3 4 5 6 7 8 9 10 11 12 13 14 15 16 17 18 19 20 21 22 23 24 25 26 27 28 29 30 31 32 33 34 35 36 37 38 39 40 41 42 43 44 45 46 47 48 49 50
000
ASUS41 KBTV 280710
RWRBTV
VERMONT REGIONAL WEATHER ROUNDUP
NATIONAL WEATHER SERVICE BURLINGTON VT
300 AM EDT THU JUL 28 2016

NOTE: "FAIR" INDICATES FEW OR NO CLOUDS BELOW 12,000 FEET WITH NO
SIGNIFICANT WEATHER AND/OR OBSTRUCTIONS TO VISIBILITY.

* THESE REPORTS ARE NOT UNDER NWS QUALITY CONTROL AND/OR DO NOT
  REPORT WEATHER SUCH AS PRECIPITATION AND FOG.

VTZ001>019-280800-
_____VERMONT_____


CITY           SKY/WX    TMP DP  RH WIND       PRES   REMARKS
BURLINGTON     FAIR      70  63  78 E6        29.86F
MONTPELIER     FAIR      63  61  93 NW3       29.95S
MORRISVILLE    FAIR      62  60  93 CALM      29.91S
ST. JOHNSBURY*   N/A     65  61  87 MISG      29.89S
LYNDONVILLE*   FAIR      63  61  96 CALM      29.94R
MIDDLEBURY*    MOCLDY    70  60  71 SE3       29.89S
RUTLAND*       FAIR      64  60  87 SE8       29.92S
SPRINGFIELD    FAIR      62  60  93 CALM      29.92R
HIGHGATE*      MOCLDY    71  63  77 CALM      29.86S
NEWPORT*       FAIR      63  61  95 CALM      29.90F
BENNINGTON     FAIR      60  57  89 CALM      29.93S

_____LAKE CHAMPLAIN_____


CITY           SKY/WX    TMP DP  RH WIND       PRES   REMARKS
BURTON ISLAND*   N/A     75  66  73 SE5         N/A
COLCHESTER RF*   N/A     75  68  78 SE9         N/A
DIAMOND ISL*     N/A     73  64  73 S6          N/A

$$

NYZ007-026>031-035-052-083-087-280800-
_____NORTHERN NEW YORK_____


CITY           SKY/WX    TMP DP  RH WIND       PRES   REMARKS
PLATTSBURGH    MOCLDY    72  60  66 CALM      29.85F
SARANAC LAKE   MOCLDY    60  56  86 CALM      29.92F
MASSENA        CLOUDY    68  63  84 SW3       29.87S
OGDENSBURG*    CLEAR     68  66  94 CALM      29.86S
POTSDAM*       CLEAR     70  66  88 SW3       29.88S
WATERTOWN      PTCLDY    70  66  87 S7        29.87F
FT DRUM        PTCLDY    72  66  80 SW6       29.88F
ALBANY         PTCLDY    68  61  78 CALM      29.91S
GLENS FALLS    PTCLDY    67  61  81 NW3       29.90R

$$
NHZ002-005-011-280800-
_____NEW HAMPSHIRE_____


CITY           SKY/WX    TMP DP  RH WIND       PRES   REMARKS
LEBANON        CLEAR     62  59  90 CALM      29.90S
KEENE          PTCLDY    60  59  96 CALM      29.93R
MT WASHINGTON  MOCLDY    54  52  94 W24         N/A
WHITEFIELD     PTCLDY    60  57  89 CALM      29.92R

$$

_____REGIONAL QUEBEC LOCATIONS_____


CITY           SKY/WX    TMP DP  RH WIND       PRES   REMARKS
MONTREAL       CLOUDY    73  66  78 W12       29.84S
QUEBEC CITY    MOCLDY    64  61  88 N3        29.83S
SHERBROOKE     MOCLDY    64  63  94 SE3       29.87F

_____REGIONAL ONTARIO LOCATIONS_____


CITY           SKY/WX    TMP DP  RH WIND       PRES   REMARKS
OTTAWA         MOCLDY    70  64  83 N6        29.88R

______KEY______
VSB  - VISIBILITY IN MILES
WCI  - WIND CHILL INDEX
HX   - HEAT INDEX
$$
NNNN




USA.gov is the U.S. government's official web portal to all federal, state and local government web resources and services.